Showing default

TJS-14, 62804

Orbit data source: Space-Track

TJS-14, 62804 is a payload satellite owned by PLA SSF (CN) in GEO that was launched on Thu, 23 Jan 2025 UTC via a CHANG ZHENG 3B launch vehicle from the Xichang Space Center, China (XSC). Payloads include a variety of satellites, spacecraft, and rockets equipped with specific instruments for various scientific and technological missions. These include communications satellites like Starlink; space stations such as the ISS; scientific satellites like the Hubble; Earth observation satellites from companies like Planet Labs, Umbra, and HawkEye 360; GPS; miniature CubeSats for education and research; and military/defense satellites.

Not visible in the next 10 days
TJS-14 details
Identifier
62804, 2025-017A
Orbit
GEO
Last TLE update14 hours ago
Origin
Flag of CNPLA SSF (CN / PRC)
ManufacturerSISE
MissionOperational spacecraft
Bus & MotorFY-4?, LAE
Mass~5,000 kg wet, ~2,500 kg dry
Launch date (UTC)
2025-01-23 (2 weeks ago)
Launch vehicle
CHANG ZHENG 3B
Launch site
Xichang Space Center, China (XSC)
Object type
Payload
Rocket body
Debris
Shape & HBRUnknown
Radar Cross SectionLarge (>1 m²)

Expand to show TLE details & history

TLE from 14 hours ago
0 TJS-14
1 62804U 25017A   25035.61959450  .00000119  00000-0  00000+0 0  9999
2 62804   2.0011 284.7447 0001573 223.5417 228.0809  1.00270582   275
Epoch: 2025-02-04T14:52Z
Definitive object data (Epoch: 2025-02-04T14:52:12.964Z)
Latitude1.98602°
Longitude18.30523°
Altitude35,790.625 km
Speed3.074 km/s
True Right ascension01h 05m 31s
True Declination1° 59' 02"
Sunlit
Object was in daylight at TLE epoch
Visualization TLE readout
Latitude-1.73009°
Longitude-133.75032°
Altitude35,785.007 km
Speed3.075 km/s
Apparent Right ascension15h 18m 07s
Apparent Declination-6° 45' 57"
Sunlit
Object is in daylight
Visualization observer readout
Local Sidereal Time06:43:26
Azimuth68.346° E
Elevation-33.472°
Doppler factor1
Orbital elements
Apogee altitude35,794.633 km
Perigee altitude35,781.368 km
Semi-major axis42,166.138 km
Eccentricity0.0001573
Inclination2.0011°
RAAN284.7447°
Arg. of periapsis223.5417°
True anomaly228.06749°
Mean anomaly228.0809°
Eccentric anomaly228.07419°
Mean motion0.25067 °/min
BSTARUnknown
Orbital period1436.17 mins
Loading historical data...
62804 neighbors
Authenticating...
Loading maneuver chart data...
Loading historical data...
Loading historical data...
Loading historical data...
Loading historical data...
Loading historical data...
Loading historical data...
Loading historical data...
Other satellites on launch #17 in the year 2025 (2025-01-23 UTC)

TJS-14 Visibility forecast

Observer location: undefined°, undefined

TJS-14 is not visible in the next 10 days
Span
Click to sort rows by Start time (UTC) header in descending order
Start Az.
Max El. time (UTC)
Max El. Az.
Max El.
End time (UTC)
End Az.
|